Home > Weather > Brno > Past weeks

Flag for Czech Republic Weather for the Past 2 Weeks in Brno, Czech Republic

Now
30 °F

Clear.


Feels Like: 30 °F
Forecast: 36 / 41 °F
Wind: No wind

Location: Brno / Turany

Current Time: Feb 12, 2016 at 3:03:51 AM

Latest Report: Feb 12, 2016 at 2:30 AM


Visibility: 10 mi

Pressure: 29.74 "Hg

Humidity: 93%

Dew point: 28 °F

Location of BrnoLocation

Historic Weather in Brno — Graph

°F

Brno Temperature Yesterday

Maximum temperature yesterday: 46 °F (at 2:00 PM)
Minimum temperature yesterday: 32 °F (at 10:30 PM)
Average temperature yesterday: 38 °F

High & Low Weather Summary for the Past Weeks

 TemperatureHumidityPressure
High54 °F (Feb 9, 1:00 PM)100% (Jan 28, 2:00 AM)30.36 "Hg (Jan 28, 2:00 AM)
Low30 °F (Jan 30, 6:00 AM)45% (Feb 5, 2:00 PM)29.24 "Hg (Feb 10, 1:00 AM)
Average41 °F79%29.95 "Hg
* Reported Jan 28 2:00 AM — Feb 12 2:00 AM, Brno, Weather by CustomWeather, © 2016

Note: Actual official high and low records may vary slightly from our data, if they occured in-between our weather recording intervals... More about our weather records

Advertising

Brno Weather History for the Previous 24 Hours

 ConditionsComfort  
Time TempWeatherWind HumidityBarometerVisibility
2:00 AM
Fri, Feb 12
30 °FClear.3 mph86%29.74 "Hg10 mi
1:30 AM30 °FClear.3 mph86%29.74 "Hg10 mi
1:00 AM30 °FPassing clouds.3 mph86%29.74 "HgN/A
12:30 AM30 °FClear.2 mph93%29.74 "Hg10 mi
12:00 AM30 °FClear.3 mph80%29.74 "Hg10 mi
11:00 PM
Thu, Feb 11
32 °FClear.1 mph87%29.74 "Hg10 mi
10:30 PM32 °FClear.3 mph87%29.74 "Hg10 mi
10:00 PM34 °FPassing clouds.3 mph81%29.74 "HgN/A
9:30 PM34 °FPassing clouds.6 mph81%29.74 "HgN/A
9:00 PM36 °FClear.2 mph75%29.74 "Hg10 mi
8:30 PM36 °FPassing clouds.3 mph70%29.74 "HgN/A
8:00 PM37 °FClear.2 mph65%29.74 "Hg10 mi
7:30 PM36 °FClear.5 mph70%29.71 "Hg10 mi
7:00 PM37 °FClear.7 mph70%29.71 "Hg10 mi
6:30 PM39 °FClear.7 mph65%29.71 "Hg10 mi
6:00 PM41 °FClear.10 mph57%29.71 "Hg10 mi
5:30 PM41 °FClear.14 mph57%29.68 "Hg10 mi
5:00 PM43 °FSunny.14 mph53%29.68 "Hg10 mi
4:30 PM43 °FSunny.14 mph53%29.68 "Hg10 mi
4:00 PM45 °FSunny.18 mph53%29.68 "Hg10 mi
3:30 PM45 °FSunny.20 mph49%29.65 "Hg10 mi
3:00 PM46 °FScattered clouds.21 mph50%29.65 "HgN/A
2:30 PM45 °FPartly sunny.18 mph53%29.65 "HgN/A
2:00 PM46 °FBroken clouds.17 mph53%29.65 "HgN/A
1:30 PM43 °FPartly sunny.17 mph61%29.65 "HgN/A
1:00 PM45 °FScattered clouds.15 mph57%29.65 "HgN/A
12:30 PM43 °FBroken clouds.16 mph57%29.65 "HgN/A
12:00 PM45 °FPartly sunny.15 mph61%29.65 "HgN/A
11:30 AM43 °FPassing clouds.12 mph71%29.65 "HgN/A
11:00 AM41 °FPassing clouds.13 mph76%29.65 "HgN/A
10:30 AM39 °FBroken clouds.10 mph81%29.65 "HgN/A
10:00 AM39 °FPartly sunny.12 mph81%29.62 "HgN/A
9:30 AM39 °FPartly sunny.10 mph81%29.62 "HgN/A
9:00 AM37 °FPartly sunny.9 mph87%29.62 "HgN/A
8:30 AM37 °FScattered clouds.9 mph81%29.59 "HgN/A
8:00 AM37 °FPartly sunny.8 mph81%29.59 "HgN/A
7:30 AM37 °FPartly sunny.10 mph81%29.59 "HgN/A
7:00 AM37 °FPassing clouds.9 mph81%29.59 "HgN/A
6:30 AM36 °FLight rain. Mostly cloudy.6 mph87%29.56 "HgN/A
6:04 AM36 °FLight rain. Overcast.7 mph87%29.56 "HgN/A
6:00 AM36 °FPassing clouds.7 mph87%29.56 "HgN/A
5:30 AM36 °FPassing clouds.5 mph87%29.56 "HgN/A
5:00 AM36 °FLight rain. Passing clouds.8 mph87%29.53 "HgN/A
4:30 AM36 °FLight rain. Passing clouds.8 mph93%29.53 "HgN/A
4:00 AM36 °FLight rain. Passing clouds.8 mph87%29.53 "HgN/A
3:30 AM36 °FLight rain. Passing clouds.9 mph87%29.53 "HgN/A
3:00 AM36 °FLight rain. Passing clouds.9 mph87%29.53 "HgN/A
Weather by CustomWeather, © 2016

See weather overviewHow to use our weather pages